Temperature
33 32 32 33 33 33 32 32 33 33 34 33 33 31 31 32 32 31 29 28 27 26 25 24 23 22 21 20 19 19 19 19 19 18 18 18 18 18 18 18 18 18 18 18
32 32 33 34 34 34 33 33 33 34 34 33 32 32 32 33 32 31 30 29 28 26 25 24 23 22 21 20 19 19 19 19 19 19 19 19 18 18 18 18 18 18 18 18
32 33 34 34 34 34 34 33 33 33 34 33 32 31 31 32 32 31 30 29 28 27 25 24 23 22 21 20 20 19 19 19 19 19 19 19 19 18 18 18 18 18 18 18
33 34 34 34 34 34 33 34 34 33 32 31 32 30 30 31 31 32 31 30 29 28 26 25 23 23 22 21 20 20 19 19 19 19 19 19 19 18 19 18 18 18 18 18
33 34 34 33 34 34 34 34 34 33 33 31 32 30 30 31 31 31 31 30 29 28 27 25 24 23 22 21 20 20 20 19 19 19 19 19 19 19 19 19 18 18 18 18
33 34 34 34 35 35 34 34 33 33 32 30 30 30 30 31 31 31 31 30 29 28 27 26 25 23 23 22 21 20 20 20 19 19 19 19 19 19 19 19 19 18 18 18
32 33 34 35 34 34 34 32 31 30 29 29 31 30 30 32 32 32 31 30 29 28 27 26 25 24 23 22 21 21 20 20 20 19 19 19 19 19 19 19 18 18 18 18
31 32 33 34 33 33 33 32 30 29 28 30 31 30 31 32 32 32 31 30 30 29 28 27 25 24 23 23 22 21 20 20 20 20 19 19 19 19 19 19 18 18 18 19
32 32 34 34 34 34 32 32 33 31 30 29 29 29 30 32 32 32 31 30 30 29 28 27 26 25 24 23 22 21 21 20 20 20 19 19 19 19 19 19 19 19 18 18
32 31 33 34 34 33 33 33 32 31 29 28 28 28 29 30 31 31 31 30 29 29 28 27 26 25 24 23 22 22 21 20 20 20 20 19 19 19 19 19 19 19 19 18
33 31 32 33 32 32 32 32 31 31 30 29 28 29 31 31 31 31 31 30 29 29 28 27 26 25 24 23 22 22 21 20 20 20 19 19 19 19 19 19 19 19 18 18
32 31 30 31 33 33 33 33 32 30 29 29 29 28 31 31 31 30 30 29 29 29 28 27 26 25 24 24 23 22 21 20 20 19 19 19 19 19 18 18 18 18 18 18
30 29 29 29 31 32 32 32 33 32 31 30 29 28 31 32 31 30 30 29 28 28 27 27 26 25 24 24 23 22 22 21 20 20 19 19 19 18 18 18 18 18 18 18
29 29 29 28 29 30 30 31 32 32 31 30 30 29 30 30 30 30 29 29 28 27 27 26 25 25 24 23 23 22 22 21 20 20 19 19 19 18 18 18 18 18 18 18
30 28 29 29 30 30 31 31 31 31 31 31 30 30 29 28 28 28 28 28 27 26 26 25 25 24 23 23 22 22 21 21 21 20 19 19 19 18 18 18 18 18 17 17
29 28 28 28 29 30 30 30 31 30 31 31 30 29 29 28 27 27 27 27 26 26 25 24 24 23 23 22 22 21 21 21 20 20 19 19 19 18 18 18 18 18 17 17
28 27 27 27 28 28 28 29 30 30 31 30 29 28 28 27 27 27 27 26 25 25 24 23 22 22 22 22 21 21 21 20 20 20 19 19 19 18 18 18 18 17 17 17
27 26 26 26 26 25 27 29 29 29 30 30 29 28 27 27 26 26 25 25 24 24 23 22 22 21 21 21 21 21 20 20 20 19 19 19 18 18 18 18 18 17 17 17
27 26 26 26 26 26 27 28 29 28 28 28 28 27 26 26 26 25 24 23 23 22 22 21 21 21 20 20 20 20 20 19 19 19 19 18 18 18 18 18 18 17 17 17
27 26 25 25 25 25 26 28 28 28 26 27 27 26 25 25 24 24 23 22 22 21 21 21 20 20 20 20 19 19 19 19 18 18 18 18 18 18 17 17 17 17 17 17
25 25 25 25 25 25 26 27 28 25 24 25 25 25 24 24 23 22 22 21 21 20 20 20 20 19 19 19 19 18 18 18 18 18 18 17 17 17 17 17 17 17 17 17
25 25 24 24 24 24 25 26 24 23 24 24 24 23 23 22 22 21 20 20 20 19 19 19 19 18 18 18 18 17 17 17 17 17 17 17 17 17 16 16 16 16 16 16
24 24 24 23 23 23 23 23 23 23 23 23 23 22 22 21 20 20 19 19 19 18 18 18 18 17 17 17 17 17 16 16 16 16 16 16 16 16 16 16 16 16 16 16
24 24 24 23 23 23 22 22 22 22 21 22 21 21 21 20 19 19 18 18 18 17 17 17 17 17 16 16 16 16 16 16 16 16 16 16 16 16 16 15 15 15 15 15
23 23 23 22 22 22 21 21 21 21 21 21 20 20 20 19 19 18 17 17 17 17 16 16 16 16 16 16 16 16 16 16 15 15 15 15 15 15 15 15 15 15 15 15
22 22 21 21 21 21 20 20 20 20 20 20 20 19 19 19 18 17 17 16 16 16 16 15 15 15 15 15 15 15 15 15 15 15 15 15 15 15 15 15 14 14 14 14
Wind_Speed
14 12 12 13 13 10 8 10 6 4 5 4 4 7 10 12 11 12 13 12 12 12 12 11 11 11 11 9 8 7 6 5 4 3 3 3 3 2 3 4 6 6 5 5
14 16 16 15 13 12 12 11 7 4 4 4 3 4 8 11 11 11 13 13 13 13 13 12 11 11 11 10 9 8 6 6 5 4 3 3 3 3 3 3 5 6 5 5
19 14 13 14 14 13 12 10 8 4 2 3 4 5 5 8 10 11 12 13 14 14 14 13 12 11 12 12 11 9 8 7 6 5 4 3 3 2 3 4 4 3 5 5
16 14 14 15 15 13 11 10 9 7 7 6 6 4 6 9 9 11 11 10 12 14 15 14 13 11 12 12 12 10 9 7 6 5 5 5 4 3 3 4 4 4 4 4
15 15 16 16 14 11 10 10 10 10 8 8 7 5 5 9 10 10 10 10 11 13 15 15 14 13 12 13 13 11 9 7 6 5 5 4 4 4 3 4 4 4 4 4
17 15 14 15 12 11 10 11 11 11 9 8 8 6 4 8 9 10 11 11 10 11 13 14 14 13 12 13 12 12 10 8 7 6 5 5 4 4 4 4 4 4 3 3
19 18 15 13 14 13 11 11 8 9 8 9 8 5 3 6 8 9 11 12 12 12 13 13 13 14 12 13 13 12 11 9 8 7 6 5 4 4 4 4 5 4 4 4
16 15 16 14 14 13 13 13 10 9 10 8 6 4 2 4 6 7 9 11 11 11 12 13 13 13 12 13 12 12 11 10 9 8 6 5 5 4 4 4 3 4 3 3
11 12 13 14 12 14 13 13 13 10 11 9 6 4 5 5 7 8 8 9 11 11 11 12 13 13 12 12 12 12 12 10 9 9 7 6 6 4 4 4 4 2 3 3
12 12 11 11 10 14 16 13 9 9 7 9 8 7 5 7 6 6 8 7 8 8 9 9 11 12 12 11 10 11 11 10 9 9 8 8 6 5 3 3 4 3 2 2
13 12 11 12 14 15 14 14 11 8 9 9 9 5 3 6 5 6 8 8 7 8 7 8 8 10 12 11 11 10 11 11 9 9 7 6 7 6 5 3 3 3 3 2
10 11 11 13 12 13 14 14 13 10 8 8 8 5 4 5 8 7 6 7 8 7 7 9 10 9 9 11 11 10 10 10 10 9 8 6 6 6 6 5 4 3 3 2
7 8 10 12 12 12 12 13 15 14 10 9 8 6 5 3 5 7 7 7 7 6 6 8 9 9 8 7 7 9 9 9 10 10 9 7 7 6 5 5 4 4 3 3
6 10 12 12 10 10 12 14 14 13 10 10 9 6 4 0 2 4 6 6 6 6 5 7 8 7 7 6 6 5 7 8 8 8 9 8 7 6 5 4 4 4 4 4
7 11 13 13 14 14 13 13 13 13 14 12 7 5 4 2 1 3 4 6 6 6 5 5 6 6 6 6 6 5 4 5 5 6 7 8 7 6 6 5 5 5 4 5
6 8 12 14 14 14 14 13 12 12 12 11 7 3 2 3 3 3 5 6 5 5 5 5 5 5 5 5 6 5 5 4 5 5 5 6 7 6 6 5 5 5 5 4
8 8 11 12 12 13 13 12 12 9 9 7 4 2 3 2 1 4 5 5 4 4 5 4 4 3 4 4 4 5 5 5 5 4 4 4 5 5 5 5 5 5 5 4
9 8 7 10 11 14 9 7 8 7 6 3 1 1 2 2 1 3 5 4 4 3 4 4 3 3 3 3 4 4 4 5 5 5 4 3 4 4 5 5 5 5 5 5
8 7 8 10 12 11 8 6 7 6 4 3 0 1 1 1 1 3 5 4 4 3 3 3 3 3 2 3 3 3 4 4 4 5 5 4 4 4 5 5 5 4 4 4
10 8 9 10 12 11 6 6 5 6 6 4 2 2 2 2 1 1 3 4 4 4 4 3 2 2 2 2 2 2 3 3 3 3 4 4 4 4 5 4 4 3 3 3
10 10 12 13 12 6 5 5 4 6 3 4 3 2 1 1 1 2 3 4 4 4 3 3 4 3 3 3 3 2 2 1 2 2 2 3 3 4 4 3 3 3 3 4
7 8 9 10 11 5 6 3 1 2 4 4 5 4 4 5 6 5 4 4 4 4 3 4 4 4 4 4 3 3 2 1 2 2 2 2 1 2 2 3 3 3 3 4
6 4 3 3 3 3 6 4 4 4 5 4 5 4 5 5 5 4 4 3 3 3 3 4 4 4 3 3 3 2 2 2 2 2 2 2 1 0 0 2 2 2 3 3
4 1 3 3 1 3 3 3 5 5 4 4 4 3 4 4 4 3 4 4 4 5 4 4 4 4 4 4 3 2 2 2 1 2 2 1 1 1 1 1 1 1 1 1
3 2 2 1 1 2 3 5 5 4 3 4 4 3 3 4 3 4 4 4 5 5 4 4 4 4 4 4 3 3 2 2 1 1 1 1 1 2 1 1 0 0 1 1
4 3 2 1 1 1 0 2 2 2 2 2 3 3 3 3 3 4 4 4 4 4 4 4 4 4 4 3 4 3 3 2 1 0 1 1 1 1 1 1 1 3 2 3
Wind_Direction
231 235 241 244 244 250 252 265 261 212 195 206 176 163 176 171 170 161 161 164 164 162 158 152 152 148 146 147 149 149 147 139 149 148 151 145 145 156 142 142 141 144 156 147
233 232 240 247 250 256 255 265 266 238 183 190 184 191 185 173 174 170 167 168 167 162 157 154 157 155 153 152 154 154 151 153 165 157 160 163 158 166 152 135 139 154 157 158
231 232 238 249 254 259 263 271 276 286 249 211 214 214 190 174 178 172 171 170 169 166 162 161 163 162 159 157 160 167 163 162 171 154 160 158 141 168 140 141 147 160 161 164
236 236 240 246 252 256 262 268 275 273 267 249 233 233 183 183 188 175 169 169 171 168 164 164 167 168 166 162 164 162 159 163 167 163 173 169 159 165 169 161 153 163 166 168
242 235 238 245 246 250 261 278 281 279 268 264 252 238 197 183 189 179 167 168 177 169 164 167 171 170 170 167 165 163 159 165 167 174 174 174 169 170 172 160 150 160 173 181
245 243 239 247 251 249 257 267 270 272 268 257 257 251 219 182 183 174 166 167 172 169 164 165 167 167 171 169 166 164 162 167 170 178 179 179 181 177 165 160 159 174 176 179
240 237 233 236 247 244 242 252 257 259 252 245 232 246 231 160 170 165 161 163 170 168 164 164 165 166 169 169 168 166 162 168 173 180 184 180 185 182 172 174 178 187 185 179
237 233 226 226 232 244 241 244 246 257 263 261 236 217 218 140 143 145 154 162 165 165 165 166 165 165 167 169 168 163 162 170 176 181 186 176 180 188 188 195 197 183 197 184
251 241 221 222 225 238 244 245 256 258 266 275 276 222 188 173 153 153 152 160 157 163 167 169 166 165 166 168 165 163 161 168 176 179 180 176 182 191 196 184 196 194 191 190
256 267 243 220 218 237 244 252 261 261 269 272 267 256 222 174 166 159 153 145 146 157 161 161 162 164 167 166 161 162 162 168 174 177 181 181 184 191 200 192 181 191 203 210
253 262 255 233 223 235 234 237 246 257 260 263 267 258 174 148 157 167 160 145 152 152 149 149 158 162 161 164 165 164 163 167 173 178 179 179 177 187 192 199 192 187 198 210
258 257 258 253 240 238 243 243 246 250 257 262 265 269 249 173 165 160 148 135 140 139 145 155 159 153 159 163 169 167 168 173 176 178 173 181 173 178 186 192 191 187 186 196
267 261 257 250 242 233 242 250 255 255 252 250 254 240 232 173 147 134 141 133 134 134 141 146 143 148 152 155 158 164 170 175 178 178 175 179 178 177 184 188 183 183 182 189
252 251 260 256 257 253 245 252 257 259 259 259 248 215 222 212 117 117 126 125 117 121 131 136 134 139 143 147 147 153 170 172 174 174 174 172 175 178 180 182 180 186 186 189
244 247 258 267 270 267 263 253 253 257 263 266 258 216 198 149 121 123 122 122 121 123 124 120 130 133 140 147 149 154 157 157 163 165 168 170 171 173 179 181 181 189 194 200
245 258 259 260 263 265 266 266 260 260 261 261 258 242 152 107 100 111 123 126 130 131 119 108 110 131 143 148 153 153 151 149 150 157 166 164 170 176 185 185 183 188 195 202
250 264 264 258 259 265 259 259 255 254 266 266 254 192 130 84 128 133 123 128 135 142 129 124 124 123 142 153 150 150 152 152 156 163 168 166 167 174 182 193 187 196 199 202
253 260 262 263 261 256 262 279 277 272 278 282 257 83 104 126 186 117 108 111 113 116 125 128 131 139 156 154 154 152 163 161 164 167 173 172 174 177 179 189 195 201 202 205
239 243 253 257 253 249 251 256 260 260 274 314 301 89 78 72 82 87 79 90 98 101 97 109 131 149 140 155 156 156 169 166 168 173 177 179 181 181 185 193 201 200 201 207
224 225 243 253 259 259 254 256 270 271 247 341 14 103 130 143 203 136 78 82 94 85 95 94 98 101 111 117 131 153 169 171 178 181 180 174 182 189 194 197 201 207 208 218
223 222 236 250 257 256 290 292 270 246 261 329 3 43 76 75 88 101 89 76 81 83 73 91 98 85 69 76 93 106 135 157 160 157 167 167 185 202 194 192 193 210 216 219
235 233 236 249 252 255 346 332 344 30 23 20 36 53 59 74 89 101 96 84 83 88 86 87 87 86 79 79 88 91 77 70 92 109 123 138 173 227 196 185 204 214 224 223
232 245 245 260 261 13 25 45 52 41 29 28 52 60 73 85 93 97 92 91 99 95 87 86 88 85 79 85 89 86 65 61 93 107 104 98 85 96 106 201 209 215 218 226
204 268 230 230 171 45 30 44 49 45 38 31 57 73 87 94 89 83 91 88 90 91 92 85 79 80 76 72 76 82 79 75 102 121 127 124 130 187 176 165 229 236 287 266
326 278 261 206 117 50 20 37 39 28 29 52 76 101 105 107 101 92 95 85 88 93 92 88 80 78 75 69 64 69 75 83 97 164 178 188 222 227 177 147 10 231 11 32
341 339 297 274 352 309 54 43 42 14 27 78 91 97 103 111 117 109 104 99 98 95 91 90 85 77 68 61 47 43 47 48 42 243 253 263 246 214 201 148 121 64 85 73
Height
1467 1470 1471 1466 1462 1463 1465 1469 1468 1462 1455 1460 1465 1470 1470 1472 1475 1480 1486 1491 1496 1499 1503 1506 1509 1511 1512 1514 1515 1518 1520 1521 1523 1525 1526 1527 1528 1530 1531 1532 1533 1534 1535 1536
1468 1469 1462 1457 1456 1457 1461 1465 1464 1458 1453 1458 1464 1468 1465 1468 1472 1477 1482 1487 1492 1497 1501 1504 1507 1509 1511 1512 1514 1517 1519 1521 1523 1525 1526 1528 1529 1531 1532 1533 1534 1535 1536 1537
1464 1460 1456 1457 1457 1459 1460 1461 1461 1460 1456 1456 1465 1474 1468 1468 1470 1474 1478 1483 1488 1493 1497 1501 1505 1508 1510 1511 1513 1516 1518 1520 1522 1524 1526 1528 1529 1531 1532 1534 1534 1535 1536 1537
1456 1453 1454 1456 1457 1456 1463 1453 1453 1457 1465 1471 1468 1485 1472 1469 1469 1471 1475 1480 1485 1489 1494 1498 1502 1505 1508 1510 1512 1515 1517 1520 1522 1524 1525 1527 1529 1530 1532 1533 1534 1535 1537 1538
1455 1451 1453 1456 1453 1452 1455 1451 1454 1457 1462 1470 1467 1479 1476 1466 1471 1469 1472 1477 1482 1486 1491 1495 1499 1503 1506 1509 1511 1514 1516 1519 1521 1523 1525 1527 1529 1530 1532 1533 1534 1535 1536 1537
1449 1446 1447 1449 1447 1448 1450 1453 1455 1458 1464 1484 1474 1479 1479 1466 1465 1465 1468 1474 1479 1483 1488 1492 1497 1501 1504 1507 1510 1512 1515 1517 1519 1522 1524 1525 1527 1529 1531 1532 1534 1535 1536 1536
1452 1446 1443 1445 1450 1449 1451 1465 1481 1487 1488 1486 1467 1474 1472 1457 1456 1460 1465 1471 1476 1481 1485 1490 1494 1498 1502 1505 1508 1511 1513 1515 1518 1520 1522 1524 1526 1528 1530 1531 1533 1534 1535 1535
1458 1457 1443 1442 1447 1453 1452 1459 1481 1499 1498 1481 1469 1476 1465 1454 1455 1459 1464 1469 1474 1478 1483 1488 1492 1496 1500 1503 1506 1509 1511 1513 1516 1518 1520 1523 1525 1527 1528 1530 1532 1532 1533 1534
1452 1452 1437 1438 1441 1446 1453 1455 1452 1468 1476 1486 1481 1471 1463 1456 1456 1459 1463 1467 1472 1476 1480 1485 1490 1494 1498 1501 1504 1507 1509 1511 1514 1516 1519 1521 1523 1525 1527 1529 1530 1531 1532 1533
1444 1453 1440 1436 1441 1444 1446 1448 1456 1469 1488 1496 1489 1481 1474 1461 1459 1459 1462 1466 1471 1475 1479 1483 1488 1492 1496 1500 1503 1505 1508 1510 1512 1515 1517 1519 1521 1523 1525 1527 1528 1529 1531 1532
1440 1452 1448 1442 1446 1450 1448 1452 1456 1461 1467 1487 1496 1483 1454 1455 1457 1460 1462 1466 1471 1474 1478 1481 1487 1491 1495 1498 1501 1504 1506 1508 1511 1513 1515 1517 1519 1521 1523 1524 1526 1527 1529 1530
1443 1449 1455 1447 1437 1437 1441 1445 1451 1467 1472 1470 1481 1481 1452 1453 1456 1460 1462 1467 1471 1475 1478 1482 1485 1489 1493 1497 1500 1502 1504 1507 1509 1511 1513 1515 1517 1519 1520 1522 1523 1525 1526 1527
1448 1455 1466 1462 1452 1442 1444 1443 1443 1447 1454 1466 1478 1478 1451 1452 1454 1457 1462 1466 1470 1475 1478 1481 1484 1488 1492 1495 1498 1500 1503 1505 1507 1509 1511 1513 1515 1516 1518 1519 1521 1522 1523 1524
1450 1455 1462 1469 1460 1450 1450 1447 1444 1448 1458 1462 1462 1464 1455 1454 1456 1459 1463 1467 1471 1475 1478 1480 1484 1487 1491 1494 1497 1499 1502 1504 1506 1507 1509 1510 1512 1513 1515 1517 1519 1520 1521 1522
1449 1456 1454 1452 1447 1446 1446 1446 1446 1449 1450 1456 1456 1457 1457 1457 1460 1462 1465 1469 1472 1476 1478 1481 1484 1487 1490 1493 1495 1498 1500 1502 1503 1505 1506 1508 1509 1511 1513 1514 1516 1517 1519 1520
1449 1455 1456 1456 1450 1448 1449 1446 1445 1447 1447 1448 1450 1456 1455 1457 1460 1464 1467 1470 1473 1477 1479 1481 1484 1486 1489 1491 1494 1496 1498 1499 1501 1502 1504 1506 1507 1509 1511 1512 1513 1515 1516 1517
1452 1457 1461 1463 1455 1454 1459 1450 1447 1446 1444 1448 1456 1458 1457 1460 1463 1465 1468 1471 1475 1478 1480 1482 1484 1486 1488 1490 1492 1493 1495 1497 1499 1501 1502 1504 1505 1506 1508 1509 1510 1511 1512 1513
1455 1459 1461 1463 1465 1476 1458 1444 1444 1446 1446 1446 1451 1455 1458 1462 1465 1466 1469 1473 1476 1479 1480 1481 1483 1485 1487 1489 1490 1492 1494 1495 1497 1498 1500 1501 1503 1503 1505 1506 1507 1508 1509 1510
1451 1457 1462 1464 1468 1464 1452 1447 1446 1451 1454 1452 1454 1458 1461 1463 1465 1468 1471 1474 1476 1478 1480 1481 1483 1484 1486 1487 1488 1490 1491 1493 1494 1496 1497 1498 1500 1501 1502 1503 1504 1505 1506 1506
1449 1453 1461 1463 1470 1471 1458 1447 1446 1451 1460 1456 1456 1459 1462 1464 1467 1470 1473 1475 1476 1478 1479 1480 1482 1483 1484 1486 1487 1487 1489 1490 1492 1493 1494 1495 1497 1498 1499 1500 1501 1502 1503 1504
1453 1456 1460 1462 1465 1462 1453 1448 1448 1463 1466 1458 1458 1461 1463 1465 1469 1473 1474 1476 1477 1478 1479 1480 1481 1482 1483 1484 1485 1486 1487 1488 1489 1490 1491 1493 1494 1495 1496 1497 1498 1499 1500 1501
1455 1457 1460 1461 1466 1468 1454 1452 1459 1463 1460 1460 1461 1463 1465 1466 1469 1472 1474 1476 1477 1478 1479 1479 1480 1481 1482 1483 1484 1484 1485 1486 1487 1488 1488 1490 1491 1492 1494 1494 1495 1496 1497 1498
1452 1455 1457 1461 1464 1461 1460 1460 1461 1461 1462 1462 1463 1465 1467 1469 1471 1473 1475 1477 1477 1478 1479 1479 1479 1480 1482 1482 1483 1483 1484 1485 1485 1486 1486 1487 1488 1489 1490 1491 1492 1493 1494 1495
1451 1452 1454 1459 1459 1460 1462 1462 1462 1463 1464 1464 1465 1466 1468 1471 1473 1474 1476 1477 1477 1477 1478 1479 1479 1479 1481 1482 1483 1483 1483 1483 1484 1484 1485 1486 1486 1487 1488 1488 1489 1490 1491 1492
1456 1455 1456 1459 1462 1462 1464 1464 1465 1466 1465 1465 1465 1467 1469 1471 1473 1475 1476 1477 1477 1478 1479 1479 1480 1479 1480 1481 1481 1482 1482 1482 1483 1483 1484 1484 1485 1485 1486 1485 1486 1486 1487 1488
1457 1459 1461 1463 1464 1465 1467 1466 1466 1466 1466 1466 1466 1468 1470 1472 1474 1475 1477 1478 1478 1479 1479 1479 1480 1480 1480 1480 1480 1481 1481 1481 1481 1482 1482 1482 1483 1484 1484 1483 1484 1484 1485 1485